STARLINK-1939

Last updated on Tue Nov 24 2020 00:02:02 GMT+0000 (Coordinated Universal Time)

1 46774U 20074AM 20328.58334491 -.01087311 00000-0 -19133-1 0 9994 2 46774 53.0533 13.5764 0001111 70.6885 256.7749 15.52672534 1802

Satellite not in orbit